Live-Position
3D-Globus wird geladen...
Über Starlink 3231
Group: 3 satellites
Beschreibung wird geladen...
Nächste Überflüge
Passes for default location (London). Set your location on the main map for personalized predictions.
Höhenverlauf
Loading altitude history...
No altitude history available
Zweizeiliger Elementsatz
1 49744U 21115W 26126.72078414 -.00000512 00000-0 -14096-4 0 9992
2 49744 53.2156 248.5012 0001124 76.5066 283.6051 15.08830839244293
Epoch: 6. Mai 2026 •
Age: 8 hours
Aktueller Status
Höhe 559.0 km
Geschwindigkeit 7.58 km/s
Subsatellitenpunkt -53.09°S,
72.82°W
Startdatum 2. Dez. 2021
Alter 4.4 years
Typ internet
Startgruppe
Falcon 9 •
Group 4-3 •
45 satellites
Starlink 3219
49724
Starlink 3218 49725
Starlink 3242 49727
Starlink 3240 49728
Starlink 3251 49729
Starlink 3249 49730
Starlink 3246 49732
Starlink 3252 49733
Starlink 3238 49734
Starlink 3113 49735
Starlink 3148 49736
Starlink 3225 49737
Starlink 3143 49738
Starlink 3155 49739
Starlink 3226 49740
Starlink 3244 49741
Starlink 3202 49742
Starlink 3239 49743
Starlink 3241 49745
Starlink 3233 49746
...and 24 more
Technische Details
Klassifizierung Payload
Masse 290.00 kg
Trockenmasse 270.00 kg
Gesamtmasse 290.00 kg
Länge 0.20 m
Durchmesser 2.80 m
Spannweite 9.00 m
Form Box + pan
Hersteller SPXS
Bus-Typ Starlink
Phasenstatus In Orbit
Besitzer/Staat SPXS/US
Most Searched
Loading...